Vorticity
6 5 6 5 5 6 4 4 4 4 4 3 3 3 3 4 5 7 9 9 9 9 5 5 5 4 4 3 2 2 3 4 5 5 7 7 8 9 8 7 7 8 9 9 7 6 6 8 9 9 9 9 8 8 9 8 6 6 5 6 7 7 7 6 5 5 5 6 8 10 10 8 7 6 5 5 4 4 4 4 6 6 5 5 5
8 7 6 6 5 4 4 4 4 4 4 4 3 3 3 3 4 5 6 8 8 8 7 7 6 5 5 4 4 3 4 5 5 5 7 8 8 8 8 8 7 8 10 11 10 8 8 7 8 9 9 8 8 9 9 7 5 5 6 6 8 8 7 7 7 7 5 4 6 9 9 8 7 8 8 7 6 6 5 4 5 6 6 6 5
5 5 6 7 6 6 5 4 5 4 4 4 3 4 3 3 3 3 5 7 7 7 8 7 6 6 6 5 4 3 2 3 4 5 7 7 7 8 9 9 8 9 11 11 9 8 8 8 8 9 9 9 9 9 9 9 8 6 5 6 7 6 6 7 8 8 7 7 7 9 8 6 6 7 7 7 7 6 5 4 4 5 5 6 6
7 5 6 6 5 6 6 4 5 5 4 4 3 3 3 3 3 3 4 5 6 7 7 6 6 6 6 6 6 5 5 5 5 5 6 6 6 8 9 9 8 9 9 8 7 7 8 9 10 9 8 7 7 7 8 9 7 3 3 6 6 3 4 6 7 6 7 8 8 8 8 7 7 8 8 7 7 6 6 5 5 5 5 6 6
7 6 7 8 6 5 6 6 5 4 3 4 4 3 4 4 3 3 4 4 6 7 6 6 6 5 6 8 6 4 6 8 6 6 6 6 7 8 8 8 9 9 5 2 5 7 7 8 9 10 10 8 7 7 6 6 6 4 3 5 6 3 2 3 4 4 4 5 5 5 6 7 7 8 7 6 7 7 7 6 6 6 7 6 5
4 7 7 7 7 5 5 6 7 8 6 3 4 4 4 4 5 4 4 4 4 5 6 7 6 5 6 7 4 3 5 5 5 7 6 5 6 5 6 8 9 9 7 2 2 6 7 6 7 7 7 7 8 10 7 5 7 6 3 3 5 5 3 2 2 4 4 4 5 4 4 5 5 6 5 4 5 7 8 8 6 5 8 8 6
4 7 8 8 10 10 7 4 4 8 10 7 5 5 5 6 6 5 5 5 4 4 5 6 6 6 6 7 4 1 2 3 5 6 5 4 4 4 6 7 6 7 9 5 2 3 4 6 7 7 4 4 5 7 7 6 6 5 3 2 3 5 6 5 3 4 5 6 6 6 6 5 6 7 5 3 4 7 9 9 8 6 6 8 9
6 5 8 9 7 7 8 7 4 4 8 9 8 7 6 5 5 5 5 5 5 6 6 5 6 6 7 8 6 0 1 6 7 7 7 5 4 4 5 5 3 5 6 4 2 3 4 4 7 7 6 6 7 7 7 8 8 7 5 4 4 5 7 7 5 4 4 6 6 6 5 6 6 7 8 7 7 8 9 8 9 9 7 6 7
7 3 7 9 4 3 7 8 6 4 5 7 9 9 7 5 5 5 6 6 6 7 7 6 6 6 6 7 6 3 2 5 6 6 6 5 5 4 4 3 3 5 5 3 2 4 4 3 4 5 5 6 8 9 9 8 6 5 4 4 5 6 5 4 5 4 4 4 6 5 5 5 6 6 6 6 5 4 5 5 5 6 7 5 4
8 2 4 9 6 4 6 7 7 8 6 5 6 8 8 6 6 6 6 7 7 7 7 6 6 7 6 6 6 5 5 5 6 7 6 6 6 5 5 5 4 6 6 4 3 4 5 5 4 4 4 4 5 6 7 6 5 4 6 6 7 6 4 4 5 6 5 5 5 6 6 6 7 7 7 6 4 3 4 6 6 6 7 7 5
9 4 3 7 7 6 5 5 5 8 9 8 6 7 7 6 7 7 6 6 6 7 7 6 7 8 7 6 6 6 6 5 5 6 5 6 7 6 5 4 4 6 5 4 3 3 4 5 5 4 5 5 5 4 4 5 5 5 5 6 5 5 5 5 5 5 6 7 7 6 5 4 5 7 6 5 5 5 5 7 6 5 4 3 3
7 6 6 5 7 8 6 5 7 7 7 7 5 5 7 8 9 9 7 7 6 7 6 6 7 6 3 3 5 5 6 6 5 6 6 6 7 8 7 6 5 6 5 4 2 2 4 5 5 7 7 5 4 5 5 4 5 6 5 5 6 6 5 6 6 5 7 9 10 9 6 4 6 11 11 8 6 6 6 6 6 5 4 2 2
6 4 6 8 11 12 5 4 10 9 2 2 5 6 8 11 12 10 8 7 6 6 5 5 6 5 2 3 4 4 4 5 4 5 6 6 6 6 6 6 6 6 5 4 2 3 6 7 8 10 8 4 2 5 7 7 6 6 6 6 7 8 6 5 5 6 7 6 7 9 8 5 6 9 10 8 7 7 6 6 6 7 5 4 4
15 10 6 3 7 11 6 4 10 10 4 3 7 8 9 9 7 5 7 8 8 7 5 4 4 5 5 6 7 6 5 5 5 6 7 6 5 5 4 4 4 5 6 6 6 7 7 6 6 6 5 5 2 -2 3 10 9 8 9 8 7 7 7 7 7 7 9 8 5 5 8 8 6 5 6 6 6 7 7 6 6 6 5 5 6
11 15 13 8 4 3 5 7 10 10 8 8 8 9 10 7 3 6 11 9 6 6 5 4 5 6 6 6 6 5 5 6 7 8 7 6 5 5 5 5 4 4 5 5 6 8 8 6 5 2 0 3 2 -2 -0 6 7 8 9 6 5 6 5 4 5 6 6 7 6 6 8 9 4 2 4 5 4 5 6 5 4 4 5 7 8
9 8 15 20 13 2 0 8 12 8 6 8 10 11 10 6 2 7 12 8 6 7 6 4 5 6 4 2 3 4 6 8 9 10 10 10 9 9 9 10 9 7 7 7 6 7 9 10 10 9 5 3 5 3 2 4 7 7 7 7 11 13 9 6 7 6 3 3 5 6 7 6 2 1 3 4 2 2 4 5 6 7 8 8 7
27 24 19 19 23 17 6 5 10 7 5 10 13 13 14 13 9 8 7 5 4 2 -1 -1 5 7 4 3 5 8 10 9 8 9 10 11 11 11 10 9 9 9 8 8 8 8 8 8 9 10 8 6 8 7 5 10 14 8 3 7 9 6 5 7 9 8 5 4 6 7 6 6 5 5 5 3 1 2 3 5 8 9 9 9 8
26 36 24 16 31 38 24 13 12 7 3 3 0 -3 0 5 4 0 -2 0 1 -1 -2 1 6 8 7 6 7 8 8 7 6 6 8 8 6 4 4 3 6 8 6 5 7 8 11 12 10 9 8 6 5 4 4 9 7 -3 -2 7 6 2 4 9 11 10 8 6 6 6 8 8 6 6 6 6 6 6 6 6 5 4 6 8 9
26 32 19 6 12 21 26 32 30 16 5 -1 -8 -9 -4 -2 -3 -6 -6 -1 4 5 6 7 5 4 5 7 9 10 8 7 6 6 8 8 5 4 7 9 10 9 8 8 8 8 11 12 6 3 5 5 3 1 3 6 5 2 5 7 4 3 4 4 7 9 9 9 8 6 6 6 5 5 5 5 5 5 5 6 5 3 3 5 7
18 28 24 15 11 16 28 35 28 17 14 9 3 5 7 2 -1 -0 2 7 9 6 2 0 2 3 2 3 7 9 8 7 9 10 10 11 13 13 14 16 15 11 11 16 17 13 11 9 3 1 6 7 5 6 11 14 14 14 13 9 7 8 5 3 6 9 10 11 11 8 6 4 2 3 3 3 4 5 5 5 4 4 5 5 6
13 21 18 10 4 5 12 16 16 21 27 23 14 11 11 10 10 12 12 11 10 7 3 1 4 7 7 7 7 7 7 9 10 9 7 8 13 15 20 31 34 23 14 15 15 10 8 8 8 8 10 9 9 13 18 18 15 12 9 7 8 10 9 7 6 6 8 11 10 9 9 7 6 5 4 3 3 4 5 5 4 4 4 5 6
27 25 24 20 13 11 15 17 20 27 31 26 18 14 13 13 14 14 14 14 12 13 16 16 16 15 12 9 6 5 8 11 9 9 11 14 15 12 12 23 29 25 24 31 34 31 30 30 22 11 5 8 12 16 16 15 17 19 19 19 20 21 22 20 16 12 14 15 15 15 14 12 12 12 11 11 10 9 8 8 8 6 4 3 4
16 21 32 36 31 31 35 29 19 18 21 18 16 18 18 17 18 17 16 17 17 16 16 15 13 12 9 7 7 10 14 14 16 21 21 19 18 16 14 12 10 13 24 33 35 33 33 36 36 29 24 21 19 17 15 14 18 23 24 27 28 22 19 23 26 25 25 23 20 17 13 10 11 12 11 9 8 7 8 9 10 13 17 16 8
8 10 18 22 21 23 34 39 30 22 19 13 11 17 20 21 28 31 23 16 16 19 19 16 12 12 13 13 16 18 15 11 17 23 24 21 20 21 25 21 9 5 10 7 3 4 5 6 13 21 25 23 17 13 12 10 11 9 6 8 7 2 2 9 13 14 14 10 4 2 2 5 11 18 21 17 12 12 13 12 11 13 18 21 18
18 10 3 9 13 5 5 22 31 26 23 22 21 23 22 16 17 22 22 17 15 19 24 25 21 19 17 13 11 10 9 10 11 7 9 18 18 8 4 -1 -11 -9 2 -0 -6 0 7 6 3 2 4 7 7 6 6 6 7 6 4 3 3 4 7 10 8 8 11 10 7 8 9 9 11 16 21 22 20 17 15 14 15 14 13 14 16
22 19 9 11 14 2 -7 5 17 15 13 14 12 13 17 12 5 5 8 9 8 8 12 16 17 17 18 16 11 7 8 14 11 -6 -14 -1 8 3 -1 -2 -7 -2 9 9 2 4 9 11 9 6 5 4 2 1 1 3 5 6 7 8 7 6 7 8 8 10 13 15 18 22 19 11 8 10 12 11 12 12 10 9 11 12 8 5 5
13 16 14 13 15 13 9 11 13 12 10 9 6 6 10 11 8 7 7 9 10 10 10 11 11 10 11 13 12 9 9 12 12 3 -4 -0 7 8 9 11 10 10 11 11 9 9 9 9 10 10 9 8 7 7 7 6 5 5 6 7 8 8 8 9 10 10 11 13 16 20 18 12 7 7 8 6 5 6 8 9 8 9 9 8 8
10 10 11 10 9 11 12 11 12 14 13 12 12 11 11 12 12 12 10 10 11 11 11 12 11 9 9 9 9 9 10 9 8 8 7 5 5 6 6 8 9 9 8 8 9 9 10 10 10 9 8 8 8 9 10 11 10 10 9 9 10 11 10 10 10 10 10 11 12 15 18 18 13 9 8 8 9 11 13 13 14 15 16 15 13
6 6 7 7 6 6 7 7 8 9 9 8 8 9 10 12 12 12 12 12 11 10 9 9 8 8 8 9 8 9 10 10 9 9 10 9 8 7 6 6 6 7 8 10 11 11 12 13 13 14 14 13 11 10 10 11 12 12 12 12 12 12 12 12 12 11 10 11 11 11 12 14 16 18 18 17 17 18 17 16 16 16 16 14 11
5 5 5 5 5 4 4 4 5 5 6 7 7 7 8 10 11 12 13 13 12 12 12 11 11 11 11 10 11 10 10 10 10 10 11 12 12 11 10 9 7 7 7 7 7 8 8 9 10 11 11 12 12 12 11 11 11 11 10 10 10 11 11 12 12 12 12 12 13 13 11 10 12 15 16 14 12 12 11 11 11 12 13 14 14
5 6 6 6 6 5 5 4 5 5 5 5 6 7 8 9 9 10 10 10 11 12 12 12 12 13 13 12 12 13 12 12 12 12 12 12 12 12 13 13 12 11 11 10 10 10 9 10 10 9 8 8 10 10 10 11 11 10 10 10 11 12 12 12 13 13 13 13 13 13 14 14 13 13 12 13 14 14 12 10 7 6 6 7 9
6 6 7 7 7 8 8 8 6 6 7 9 10 11 11 11 11 11 11 11 11 11 11 12 12 12 12 12 12 12 12 12 12 12 12 12 11 11 11 11 11 11 11 11 11 11 12 12 12 11 11 12 11 11 11 11 11 11 12 12 13 12 12 12 12 12 13 13 13 13 14 14 13 12 10 7 5 3 1 -1 -1 1 2 3 4
6 6 6 7 7 9 11 11 9 8 8 10 11 12 12 12 12 12 11 11 11 11 11 12 12 12 12 12 12 12 12 11 11 11 10 11 11 10 10 10 10 11 11 11 11 11 11 11 11 11 11 10 10 10 10 9 9 10 10 10 9 9 9 8 9 9 9 9 9 10 11 11 11 11 11 10 8 7 6 6 7 8 9 10 9
5 6 6 6 8 11 12 11 10 10 10 12 12 12 12 11 10 10 10 9 9 10 10 9 10 10 10 10 10 11 10 10 10 10 10 10 10 9 9 10 10 10 10 10 11 11 10 9 9 8 8 8 8 8 8 8 8 7 6 5 5 5 6 6 6 6 7 7 7 7 8 8 9 9 9 9 9 9 9 9 9 10 11 11 12
7 7 8 9 10 13 13 12 10 9 9 10 11 10 10 10 9 9 9 9 9 9 9 9 8 8 8 8 8 8 8 8 8 8 8 8 8 8 8 9 9 9 10 10 10 10 9 8 8 8 7 7 7 6 6 5 5 4 5 5 6 6 6 6 6 6 6 6 6 7 7 7 8 8 8 8 9 8 8 8 8 7 7 8 8
12 11 11 12 13 14 13 11 10 9 9 9 9 9 9 9 8 8 9 9 9 9 8 8 7 7 7 7 7 7 8 8 8 8 8 8 8 9 9 9 8 8 8 7 6 5 4 4 4 4 4 4 4 4 5 5 5 5 5 5 5 5 5 4 3 4 3 3 3 3 4 4 5 5 5 6 7 7 8 7 7 6 6 6 7
12 11 12 13 13 13 13 11 10 10 10 9 9 8 8 8 7 7 7 7 7 7 7 7 7 7 7 7 8 8 8 8 9 9 9 9 9 9 8 8 7 7 6 5 5 5 5 5 5 5 5 5 5 5 5 5 5 5 5 4 4 4 3 3 3 3 3 3 4 4 4 4 5 5 6 6 6 7 8 8 8 8 7 7 6
10 11 12 12 12 11 11 10 9 10 10 10 10 9 8 7 6 6 7 7 7 7 7 7 8 8 8 9 9 9 8 8 8 8 7 7 6 6 5 5 5 5 5 5 5 6 5 5 5 5 6 6 6 6 6 6 5 5 5 5 5 5 5 5 6 5 6 6 5 5 5 5 5 5 5 5 5 6 6 7 8 9 10 10 10
11 12 12 11 11 10 10 9 9 9 9 8 7 6 5 5 6 6 7 7 8 8 9 9 10 10 10 10 10 10 10 10 10 9 9 8 8 7 7 7 6 6 6 6 5 5 5 5 5 5 5 5 5 5 5 5 5 5 5 5 5 5 5 5 5 5 5 5 5 5 5 5 5 6 7 7 7 7 7 7 7 8 9 10 10
12 12 12 11 11 10 10 9 9 9 8 7 6 5 5 6 6 7 7 8 9 10 10 10 10 10 10 11 10 10 10 10 10 10 10 9 10 9 9 9 8 8 8 8 7 7 7 7 7 6 6 6 6 6 7 7 7 7 7 7 7 6 6 6 6 6 5 5 5 6 6 5 6 7 7 7 8 9 9 10 11 11 11 11 10
11 11 11 11 11 10 9 9 8 7 7 6 5 6 6 7 8 9 9 10 10 10 10 11 11 11 11 11 11 11 10 9 8 8 7 6 6 6 6 7 7 6 6 7 7 7 7 7 7 8 8 8 9 10 10 10 11 11 11 11 11 11 11 10 10 11 11 11 11 11 10 10 10 10 10 10 10 10 11 11 12 13 14 14 14
9 9 8 8 7 6 6 6 6 6 6 5 6 7 8 9 9 10 10 10 10 9 9 10 10 9 9 9 8 9 9 8 7 7 7 7 7 7 7 7 6 6 7 7 7 7 8 9 9 9 9 10 10 11 11 11 12 12 12 11 11 11 12 13 14 16 17 17 17 17 17 18 18 18 18 17 17 16 16 15 15 15 16 16 17
6 6 5 4 4 4 5 6 6 5 4 5 6 8 10 10 9 9 9 8 8 8 8 8 9 9 9 9 9 8 8 8 8 8 8 8 7 7 7 7 8 8 9 9 10 11 11 12 12 12 12 12 12 12 12 13 13 12 12 12 12 13 14 16 18 19 19 19 20 21 21 22 22 22 22 22 22 22 21 20 19 19 18 18 19
4 5 5 4 4 5 6 6 5 4 5 7 9 9 9 9 8 7 7 6 6 6 7 7 8 8 7 7 8 8 7 7 7 7 7 7 7 7 7 7 8 9 10 11 12 12 12 12 12 12 12 12 13 14 13 13 12 12 13 14 15 17 18 19 19 18 17 16 17 17 16 16 16 16 16 17 19 20 21 22 22 21 19 19 18
6 6 7 7 7 7 7 5 4 5 7 8 8 7 6 6 5 4 4 5 5 5 6 6 6 6 7 7 8 7 7 7 7 6 6 6 6 7 8 9 10 12 12 12 12 12 12 13 13 12 12 13 13 13 12 12 13 14 15 16 17 17 17 16 15 13 12 12 12 12 12 12 13 14 15 16 18 19 20 21 22 23 23 23 22
9 9 9 9 8 7 6 4 4 5 7 7 6 5 4 4 3 4 4 4 4 5 6 6 7 7 7 8 8 7 7 7 7 7 7 7 7 8 9 11 12 13 13 13 13 13 13 13 12 12 12 12 12 12 13 14 14 15 15 15 15 15 13 12 11 11 10 10 10 11 13 14 16 18 19 20 20 19 19 20 21 23 24 24 23
9 9 9 8 7 6 5 4 4 5 5 5 5 4 3 2 2 2 3 4 6 7 7 7 7 8 8 8 8 7 7 7 7 8 9 10 11 12 13 14 14 13 12 12 12 12 12 12 12 12 12 13 14 15 15 15 15 15 14 13 13 12 11 11 11 10 11 12 15 17 20 21 21 20 19 18 17 17 19 20 21 20 20 20 20
9 8 8 7 7 6 5 4 4 4 4 5 5 4 3 2 2 3 4 6 7 7 8 8 8 8 8 8 7 7 8 9 10 11 12 13 14 15 15 15 14 13 13 13 13 14 14 14 14 14 15 16 15 15 15 15 14 13 12 11 11 11 11 11 13 15 17 20 21 21 20 18 17 16 16 16 18 19 19 18 18 18 19 19 20
9 9 10 10 9 8 8 7 7 7 7 6 5 5 4 4 4 4 5 7 7 8 8 8 8 8 8 8 9 10 11 12 13 14 15 16 16 15 14 13 13 13 14 14 14 14 14 13 14 14 14 14 13 13 13 12 12 11 11 11 11 11 13 16 19 21 22 21 20 18 17 17 18 19 20 21 22 22 21 21 20 20 19 19 18
8 9 10 10 9 9 10 10 9 9 8 6 6 5 5 6 7 8 9 9 9 8 7 7 7 8 10 11 12 13 14 15 16 16 17 17 16 15 14 14 14 14 14 14 13 13 13 13 14 14 13 13 13 13 12 12 11 11 11 11 13 16 20 21 21 20 18 17 18 19 20 22 23 25 26 27 26 24 22 20 18 16 15 14 15
8 8 8 8 9 9 9 9 9 8 7 7 7 7 7 9 10 10 10 9 9 8 8 9 11 12 13 14 14 15 15 16 16 16 16 15 14 14 13 14 14 13 13 14 14 15 15 15 15 15 14 14 13 13 12 12 11 11 13 17 20 22 22 20 18 17 18 21 23 24 26 27 27 27 26 24 21 18 16 14 13 13 13 13 13
Height
5888 5889 5891 5892 5893 5893 5894 5894 5895 5896 5897 5897 5898 5898 5899 5900 5901 5902 5903 5903 5904 5905 5906 5906 5907 5908 5908 5909 5910 5910 5910 5911 5911 5912 5912 5912 5913 5913 5912 5912 5912 5912 5912 5913 5913 5913 5913 5913 5914 5915 5915 5914 5914 5913 5913 5912 5912 5912 5912 5912 5911 5911 5911 5912 5912 5912 5912 5912 5911 5911 5911 5910 5910 5909 5908 5908 5907 5907 5907 5906 5906 5906 5905 5904 5904
5886 5887 5889 5890 5891 5892 5893 5893 5894 5895 5896 5897 5897 5897 5898 5899 5899 5900 5901 5902 5903 5903 5904 5905 5906 5906 5907 5907 5908 5909 5909 5909 5910 5910 5911 5911 5912 5912 5912 5911 5911 5912 5912 5913 5913 5913 5913 5913 5913 5913 5913 5913 5912 5912 5912 5911 5911 5911 5911 5911 5911 5911 5910 5910 5911 5911 5911 5910 5910 5910 5910 5910 5909 5909 5908 5908 5907 5907 5907 5907 5906 5905 5905 5904 5904
5882 5884 5886 5887 5889 5890 5891 5892 5893 5894 5895 5895 5896 5896 5897 5897 5898 5899 5899 5900 5901 5901 5902 5903 5903 5904 5905 5906 5906 5907 5907 5908 5909 5909 5909 5910 5910 5910 5911 5911 5911 5912 5912 5912 5913 5913 5913 5912 5911 5911 5912 5912 5912 5912 5912 5911 5911 5911 5911 5911 5911 5911 5910 5910 5910 5910 5909 5909 5909 5909 5909 5909 5908 5908 5908 5907 5907 5906 5906 5906 5906 5905 5905 5904 5903
5879 5881 5883 5884 5886 5888 5889 5891 5892 5892 5893 5894 5894 5895 5895 5896 5897 5897 5898 5898 5899 5900 5900 5901 5901 5902 5903 5904 5905 5905 5906 5907 5907 5907 5908 5908 5909 5909 5910 5910 5911 5912 5912 5912 5912 5912 5912 5911 5911 5911 5911 5912 5912 5911 5911 5910 5910 5910 5910 5910 5910 5910 5909 5909 5909 5909 5908 5908 5907 5907 5907 5907 5907 5908 5907 5906 5906 5905 5905 5905 5905 5905 5904 5904 5903
5876 5878 5881 5882 5883 5885 5886 5888 5890 5890 5891 5892 5893 5893 5894 5895 5896 5896 5897 5897 5898 5899 5899 5899 5900 5901 5901 5902 5903 5904 5905 5905 5906 5907 5907 5907 5908 5908 5908 5909 5910 5911 5911 5911 5911 5911 5911 5911 5911 5911 5911 5910 5910 5910 5910 5909 5909 5909 5909 5909 5909 5909 5908 5908 5908 5908 5907 5907 5906 5906 5906 5906 5906 5906 5906 5905 5904 5904 5904 5904 5903 5904 5904 5904 5903
5873 5875 5877 5879 5880 5881 5882 5884 5887 5888 5889 5890 5891 5892 5893 5894 5894 5895 5896 5896 5897 5897 5898 5899 5899 5899 5900 5900 5901 5902 5903 5903 5905 5906 5906 5906 5906 5906 5907 5907 5908 5909 5910 5910 5910 5910 5910 5910 5911 5911 5910 5910 5909 5909 5909 5909 5908 5908 5908 5908 5908 5908 5908 5907 5907 5906 5906 5906 5905 5905 5904 5904 5904 5904 5904 5903 5903 5903 5903 5903 5903 5903 5903 5903 5902
5870 5872 5874 5875 5877 5879 5880 5881 5882 5884 5886 5887 5888 5889 5890 5891 5892 5893 5894 5895 5895 5896 5896 5896 5897 5897 5898 5898 5899 5900 5901 5902 5904 5904 5904 5904 5904 5904 5905 5905 5906 5907 5907 5907 5907 5908 5908 5908 5908 5909 5909 5909 5908 5908 5908 5908 5907 5907 5906 5906 5906 5906 5906 5906 5905 5905 5905 5904 5904 5904 5903 5902 5902 5902 5901 5901 5901 5902 5902 5902 5902 5901 5901 5901 5900
5867 5869 5870 5872 5874 5876 5878 5879 5879 5880 5882 5884 5885 5887 5887 5888 5889 5890 5892 5892 5893 5893 5893 5894 5894 5895 5896 5896 5897 5898 5899 5900 5902 5902 5902 5902 5902 5902 5903 5903 5904 5904 5904 5903 5904 5904 5905 5905 5905 5906 5906 5906 5906 5906 5906 5906 5905 5905 5904 5904 5904 5904 5904 5904 5903 5903 5903 5903 5903 5903 5902 5901 5900 5900 5900 5900 5900 5900 5900 5900 5900 5899 5899 5898 5897
5865 5866 5867 5869 5871 5873 5874 5875 5877 5878 5878 5880 5883 5884 5885 5886 5887 5888 5889 5890 5891 5891 5891 5892 5893 5893 5894 5894 5895 5896 5897 5898 5900 5901 5900 5900 5900 5900 5900 5901 5902 5902 5901 5901 5901 5901 5902 5902 5902 5902 5903 5903 5903 5903 5903 5903 5902 5902 5902 5901 5901 5901 5901 5901 5901 5901 5901 5901 5901 5900 5900 5899 5899 5898 5898 5898 5898 5898 5898 5897 5897 5897 5896 5895 5895
5862 5863 5864 5865 5867 5868 5870 5872 5874 5875 5877 5878 5880 5881 5883 5883 5884 5885 5886 5887 5888 5888 5889 5890 5891 5891 5892 5893 5894 5894 5895 5896 5897 5898 5899 5899 5898 5898 5898 5899 5899 5900 5900 5899 5899 5899 5899 5899 5899 5899 5899 5899 5899 5900 5900 5900 5899 5899 5899 5899 5899 5899 5898 5898 5898 5898 5898 5898 5898 5898 5898 5897 5897 5897 5896 5896 5895 5895 5895 5894 5894 5893 5893 5893 5893
5859 5860 5860 5861 5862 5863 5866 5868 5870 5872 5874 5875 5876 5878 5879 5880 5881 5881 5882 5883 5884 5886 5886 5887 5888 5889 5890 5891 5892 5892 5893 5893 5894 5895 5896 5896 5897 5896 5896 5896 5896 5897 5897 5897 5897 5896 5896 5896 5895 5895 5895 5895 5895 5896 5896 5896 5896 5896 5896 5896 5896 5896 5895 5895 5895 5895 5896 5896 5896 5895 5895 5895 5894 5894 5894 5893 5892 5892 5892 5891 5891 5890 5890 5890 5890
5854 5855 5856 5858 5860 5861 5863 5864 5866 5868 5870 5872 5873 5874 5876 5877 5878 5879 5879 5880 5881 5883 5884 5884 5885 5886 5887 5888 5889 5890 5890 5890 5891 5892 5893 5893 5894 5893 5893 5893 5893 5894 5894 5893 5893 5893 5892 5891 5891 5892 5893 5893 5893 5893 5893 5893 5893 5893 5894 5894 5894 5894 5893 5893 5893 5893 5892 5892 5892 5892 5892 5891 5891 5891 5891 5890 5889 5889 5888 5888 5887 5887 5887 5887 5887
5848 5850 5852 5855 5857 5858 5859 5860 5862 5864 5866 5868 5869 5870 5872 5873 5875 5876 5877 5878 5879 5880 5881 5881 5882 5883 5884 5885 5886 5887 5887 5887 5888 5889 5890 5890 5890 5890 5890 5890 5890 5890 5890 5890 5889 5888 5889 5890 5891 5892 5892 5891 5891 5890 5890 5890 5890 5890 5891 5892 5892 5891 5891 5890 5890 5890 5889 5889 5888 5888 5888 5888 5887 5887 5887 5887 5886 5885 5885 5884 5884 5884 5884 5884 5884
5845 5847 5850 5852 5854 5855 5856 5857 5858 5860 5863 5864 5864 5865 5867 5869 5870 5873 5874 5874 5875 5877 5878 5879 5879 5880 5881 5882 5883 5883 5883 5884 5885 5885 5886 5886 5887 5887 5887 5887 5887 5887 5886 5885 5885 5886 5888 5889 5889 5888 5887 5886 5886 5886 5887 5887 5886 5886 5887 5888 5888 5888 5887 5886 5886 5886 5885 5885 5884 5884 5884 5883 5883 5883 5883 5882 5882 5881 5880 5880 5880 5880 5880 5880 5880
5842 5844 5846 5847 5849 5851 5853 5854 5855 5857 5860 5860 5859 5861 5863 5865 5866 5868 5869 5869 5871 5873 5875 5876 5877 5877 5878 5878 5878 5878 5879 5880 5881 5881 5882 5882 5882 5883 5883 5884 5884 5883 5882 5881 5882 5885 5886 5885 5884 5882 5882 5881 5881 5882 5882 5883 5883 5883 5884 5884 5883 5883 5883 5882 5882 5881 5881 5881 5880 5880 5880 5879 5879 5879 5878 5877 5877 5877 5876 5876 5876 5875 5875 5876 5875
5838 5839 5840 5843 5845 5847 5849 5851 5852 5854 5855 5856 5857 5858 5860 5861 5863 5865 5866 5867 5868 5869 5871 5873 5873 5874 5875 5875 5875 5875 5876 5877 5877 5877 5877 5877 5878 5878 5879 5879 5879 5878 5877 5877 5879 5881 5881 5881 5880 5879 5878 5878 5878 5878 5878 5879 5879 5880 5880 5879 5879 5879 5879 5878 5878 5877 5876 5876 5876 5876 5876 5875 5875 5875 5874 5874 5873 5872 5872 5872 5871 5871 5871 5871 5871
5832 5833 5834 5838 5841 5841 5843 5846 5849 5849 5851 5852 5854 5855 5856 5858 5859 5861 5862 5864 5865 5867 5868 5869 5870 5871 5873 5873 5873 5873 5873 5873 5873 5873 5873 5873 5874 5875 5875 5875 5875 5874 5873 5873 5875 5876 5877 5876 5876 5876 5875 5874 5875 5875 5874 5874 5875 5875 5876 5875 5875 5875 5875 5875 5874 5873 5872 5872 5872 5872 5871 5870 5870 5870 5870 5869 5869 5868 5867 5866 5866 5867 5867 5867 5866
5827 5828 5829 5833 5836 5838 5840 5843 5845 5846 5847 5848 5849 5850 5852 5854 5855 5857 5859 5861 5862 5863 5865 5866 5867 5869 5870 5870 5870 5870 5869 5869 5869 5869 5869 5870 5870 5871 5871 5871 5870 5869 5869 5870 5871 5871 5871 5870 5869 5870 5870 5870 5871 5871 5870 5870 5870 5870 5871 5870 5870 5871 5871 5870 5869 5868 5867 5867 5867 5866 5866 5865 5865 5865 5865 5864 5864 5864 5863 5862 5861 5861 5862 5862 5861
5823 5824 5826 5830 5833 5835 5837 5839 5841 5842 5843 5844 5845 5846 5848 5851 5853 5855 5856 5857 5858 5859 5860 5861 5863 5864 5866 5866 5865 5865 5866 5865 5865 5865 5865 5866 5866 5867 5866 5866 5865 5864 5864 5865 5865 5865 5864 5863 5862 5863 5864 5866 5866 5866 5865 5865 5865 5865 5865 5864 5864 5864 5864 5864 5863 5863 5862 5861 5861 5861 5860 5860 5859 5859 5859 5859 5858 5858 5858 5857 5856 5856 5857 5857 5856
5821 5821 5824 5827 5830 5832 5833 5835 5837 5839 5840 5841 5843 5844 5846 5847 5849 5850 5852 5853 5854 5855 5856 5857 5858 5859 5861 5861 5861 5862 5862 5861 5861 5861 5861 5862 5862 5862 5861 5860 5859 5859 5859 5859 5859 5859 5859 5858 5857 5858 5859 5860 5861 5860 5860 5860 5860 5859 5859 5858 5858 5857 5857 5857 5857 5857 5856 5856 5856 5856 5855 5855 5854 5854 5854 5854 5853 5853 5853 5853 5852 5851 5852 5852 5852
5820 5820 5821 5824 5826 5828 5830 5832 5834 5836 5837 5839 5840 5842 5843 5844 5845 5846 5847 5849 5850 5851 5851 5852 5853 5855 5856 5856 5857 5858 5857 5857 5857 5857 5858 5858 5858 5858 5857 5856 5855 5854 5853 5852 5852 5853 5854 5853 5853 5854 5855 5855 5855 5855 5854 5854 5853 5852 5852 5851 5851 5851 5850 5850 5850 5850 5850 5850 5850 5850 5850 5849 5849 5848 5848 5848 5848 5848 5848 5848 5847 5846 5846 5847 5847
5817 5819 5821 5822 5823 5825 5827 5828 5830 5832 5833 5835 5837 5838 5840 5841 5842 5843 5844 5845 5846 5847 5847 5848 5849 5850 5851 5852 5853 5853 5853 5853 5853 5853 5854 5854 5854 5854 5854 5853 5851 5849 5848 5847 5847 5847 5848 5848 5849 5850 5850 5850 5850 5849 5849 5848 5847 5846 5846 5846 5845 5845 5845 5845 5844 5844 5844 5845 5845 5845 5844 5844 5843 5842 5842 5841 5841 5842 5843 5842 5841 5841 5841 5841 5841
5815 5818 5820 5820 5820 5821 5822 5823 5825 5827 5829 5831 5833 5835 5837 5838 5839 5840 5841 5842 5842 5843 5843 5844 5845 5846 5847 5848 5849 5849 5849 5850 5850 5849 5850 5850 5850 5850 5850 5849 5848 5846 5844 5843 5842 5842 5843 5843 5844 5844 5844 5845 5845 5844 5844 5843 5842 5842 5841 5841 5840 5840 5840 5840 5839 5839 5839 5839 5839 5839 5839 5838 5837 5836 5835 5835 5835 5836 5836 5836 5836 5835 5835 5835 5835
5814 5817 5819 5819 5818 5819 5819 5820 5822 5823 5825 5828 5830 5832 5833 5834 5835 5836 5837 5838 5838 5839 5839 5840 5841 5842 5843 5844 5845 5845 5845 5846 5846 5846 5845 5845 5846 5846 5845 5844 5844 5843 5841 5840 5839 5838 5839 5839 5839 5839 5839 5839 5839 5839 5839 5838 5838 5838 5837 5837 5836 5835 5835 5835 5834 5834 5834 5833 5833 5834 5833 5833 5832 5831 5830 5829 5830 5830 5830 5830 5830 5830 5829 5829 5829
5815 5816 5816 5816 5816 5817 5817 5818 5820 5822 5823 5825 5827 5828 5830 5831 5832 5832 5833 5834 5835 5835 5836 5836 5837 5838 5839 5840 5841 5841 5841 5842 5842 5842 5842 5840 5840 5840 5840 5840 5840 5840 5839 5838 5837 5836 5836 5836 5835 5835 5835 5835 5835 5834 5834 5834 5834 5834 5834 5833 5832 5831 5831 5830 5829 5829 5829 5828 5828 5828 5828 5828 5827 5826 5826 5825 5824 5825 5825 5825 5824 5824 5823 5823 5822
5814 5814 5814 5814 5814 5816 5816 5816 5818 5820 5821 5823 5824 5825 5827 5828 5829 5830 5831 5832 5833 5833 5833 5834 5834 5835 5835 5836 5837 5837 5836 5837 5838 5838 5838 5836 5835 5835 5836 5836 5836 5836 5835 5835 5834 5834 5833 5833 5832 5831 5831 5831 5831 5830 5830 5830 5830 5830 5829 5829 5829 5827 5826 5825 5824 5824 5823 5823 5823 5822 5822 5822 5822 5821 5821 5820 5820 5819 5819 5819 5819 5818 5817 5817 5816
5812 5813 5813 5813 5814 5815 5815 5815 5817 5818 5819 5820 5822 5823 5824 5825 5827 5828 5829 5830 5830 5831 5831 5831 5832 5832 5832 5833 5833 5833 5833 5833 5834 5834 5834 5833 5832 5832 5832 5832 5832 5832 5831 5831 5830 5830 5830 5829 5828 5828 5827 5827 5827 5826 5826 5826 5825 5824 5824 5823 5823 5822 5821 5820 5820 5819 5819 5818 5817 5817 5817 5816 5816 5815 5815 5815 5814 5814 5813 5813 5812 5812 5811 5811 5810
5811 5812 5812 5813 5814 5815 5815 5816 5816 5817 5818 5819 5820 5821 5822 5823 5824 5825 5826 5827 5827 5828 5828 5829 5829 5830 5830 5830 5831 5831 5831 5830 5830 5830 5830 5829 5829 5829 5828 5828 5828 5828 5828 5827 5827 5826 5826 5826 5825 5825 5824 5823 5823 5823 5822 5821 5820 5819 5819 5818 5817 5817 5817 5816 5816 5815 5814 5814 5813 5812 5812 5811 5810 5810 5809 5809 5808 5807 5807 5806 5805 5805 5805 5804 5803
5810 5811 5812 5812 5813 5814 5815 5815 5816 5816 5817 5818 5819 5820 5820 5821 5822 5822 5823 5824 5825 5825 5826 5827 5827 5828 5828 5828 5828 5828 5828 5828 5828 5827 5827 5827 5826 5826 5825 5825 5825 5824 5824 5824 5823 5822 5822 5822 5821 5821 5820 5820 5820 5819 5818 5817 5816 5816 5815 5814 5813 5813 5812 5812 5812 5811 5810 5810 5809 5808 5807 5806 5805 5804 5804 5803 5802 5802 5801 5800 5799 5798 5798 5797 5797
5810 5811 5811 5812 5812 5813 5814 5814 5815 5816 5816 5817 5818 5819 5819 5820 5820 5820 5820 5821 5821 5822 5823 5824 5824 5825 5825 5825 5825 5825 5825 5825 5824 5824 5824 5823 5823 5823 5822 5822 5822 5821 5820 5820 5819 5818 5817 5817 5816 5816 5815 5815 5815 5814 5814 5813 5812 5812 5811 5810 5809 5808 5808 5807 5807 5806 5806 5805 5804 5803 5802 5801 5800 5799 5798 5798 5797 5796 5795 5794 5793 5792 5792 5791 5790
5809 5810 5811 5811 5812 5813 5813 5814 5814 5815 5816 5816 5817 5817 5818 5818 5818 5818 5818 5818 5819 5819 5820 5820 5821 5822 5822 5822 5822 5822 5822 5822 5821 5821 5820 5820 5820 5819 5819 5819 5818 5818 5817 5816 5815 5814 5813 5812 5811 5811 5810 5810 5810 5809 5809 5808 5808 5807 5806 5805 5805 5804 5803 5803 5802 5801 5800 5799 5798 5797 5796 5795 5794 5793 5792 5792 5791 5790 5789 5788 5787 5786 5785 5784 5783
5809 5809 5810 5811 5811 5812 5812 5813 5814 5814 5815 5815 5815 5815 5815 5816 5816 5816 5816 5816 5817 5817 5817 5818 5818 5819 5819 5820 5820 5819 5819 5819 5818 5818 5817 5817 5817 5816 5816 5815 5814 5814 5813 5812 5811 5810 5809 5808 5807 5807 5806 5806 5806 5805 5804 5804 5803 5803 5803 5802 5801 5800 5799 5798 5797 5796 5795 5793 5793 5792 5791 5790 5789 5788 5787 5786 5785 5784 5783 5782 5781 5780 5779 5778 5777
5808 5808 5809 5809 5810 5811 5811 5811 5812 5812 5813 5813 5813 5813 5813 5813 5814 5814 5814 5814 5814 5815 5815 5815 5816 5816 5816 5817 5817 5817 5816 5816 5815 5815 5814 5814 5813 5813 5812 5811 5810 5810 5809 5808 5807 5807 5806 5805 5804 5803 5803 5802 5802 5801 5800 5800 5800 5799 5798 5798 5797 5795 5794 5793 5792 5790 5789 5788 5787 5786 5786 5785 5784 5783 5782 5780 5779 5778 5776 5775 5774 5773 5772 5771 5770
5806 5807 5807 5808 5808 5808 5809 5809 5810 5810 5810 5810 5811 5811 5811 5812 5812 5812 5812 5812 5812 5812 5813 5813 5813 5813 5814 5814 5813 5813 5813 5812 5812 5811 5811 5810 5809 5808 5808 5807 5806 5805 5805 5804 5803 5802 5801 5801 5800 5800 5799 5799 5798 5797 5797 5796 5795 5794 5793 5792 5791 5790 5789 5788 5787 5785 5784 5782 5781 5780 5780 5779 5778 5777 5775 5774 5773 5771 5770 5769 5767 5766 5764 5763 5762
5804 5805 5806 5806 5806 5807 5807 5807 5807 5808 5808 5808 5809 5809 5810 5810 5809 5809 5809 5810 5810 5810 5810 5811 5811 5811 5810 5810 5810 5809 5809 5808 5808 5807 5806 5806 5805 5804 5803 5802 5802 5801 5800 5799 5798 5797 5797 5796 5796 5796 5795 5795 5794 5793 5792 5792 5790 5789 5788 5786 5785 5784 5783 5782 5781 5779 5778 5777 5775 5774 5773 5772 5771 5770 5768 5767 5766 5765 5763 5762 5760 5759 5757 5756 5754
5803 5803 5804 5804 5804 5805 5805 5805 5806 5806 5806 5806 5807 5807 5807 5808 5807 5807 5807 5807 5807 5807 5807 5807 5807 5807 5807 5807 5806 5806 5805 5804 5804 5803 5802 5801 5800 5800 5799 5798 5797 5796 5795 5795 5794 5793 5792 5792 5792 5791 5791 5790 5789 5788 5787 5786 5785 5784 5782 5781 5780 5778 5777 5776 5774 5773 5771 5770 5768 5767 5766 5765 5764 5762 5761 5760 5759 5757 5755 5754 5752 5751 5749 5748 5746
5800 5801 5802 5802 5802 5803 5803 5804 5804 5805 5805 5805 5805 5805 5805 5805 5805 5805 5805 5805 5805 5805 5805 5805 5805 5804 5804 5803 5803 5802 5802 5801 5800 5799 5798 5797 5797 5796 5795 5794 5793 5792 5791 5790 5789 5789 5788 5787 5787 5786 5786 5785 5784 5783 5781 5780 5779 5778 5776 5775 5773 5771 5770 5768 5766 5765 5763 5761 5760 5759 5757 5756 5755 5753 5752 5751 5750 5748 5747 5746 5744 5743 5741 5739 5738
5798 5798 5799 5800 5800 5800 5801 5802 5802 5803 5803 5803 5803 5803 5803 5803 5803 5803 5803 5803 5802 5803 5803 5802 5802 5802 5802 5801 5800 5799 5798 5798 5797 5796 5795 5794 5793 5792 5791 5791 5790 5788 5787 5786 5785 5784 5783 5782 5782 5781 5780 5779 5777 5776 5775 5773 5772 5771 5769 5767 5766 5764 5762 5760 5758 5757 5755 5753 5751 5750 5748 5747 5745 5744 5742 5741 5740 5738 5737 5735 5734 5733 5731 5730 5728
5795 5796 5797 5797 5798 5798 5799 5799 5800 5800 5801 5801 5801 5801 5801 5801 5800 5800 5800 5800 5800 5800 5800 5800 5799 5799 5799 5798 5798 5797 5796 5795 5794 5793 5792 5791 5790 5788 5787 5786 5785 5783 5782 5781 5779 5778 5777 5776 5775 5774 5773 5772 5770 5769 5767 5766 5764 5763 5761 5760 5758 5756 5754 5752 5750 5748 5746 5745 5743 5742 5740 5738 5736 5735 5733 5731 5730 5728 5726 5725 5723 5722 5720 5719 5718
5793 5794 5795 5796 5796 5796 5797 5797 5798 5798 5798 5799 5799 5799 5798 5798 5798 5797 5797 5796 5796 5796 5796 5796 5796 5795 5794 5794 5793 5793 5792 5791 5790 5789 5788 5786 5785 5783 5782 5781 5779 5777 5776 5775 5773 5772 5771 5770 5769 5768 5767 5765 5764 5762 5760 5759 5757 5755 5754 5752 5750 5749 5747 5744 5742 5740 5738 5736 5734 5733 5731 5729 5727 5725 5724 5722 5720 5718 5716 5714 5713 5711 5709 5708 5706
5791 5792 5793 5794 5794 5795 5795 5795 5795 5796 5796 5796 5796 5796 5796 5795 5795 5794 5794 5793 5793 5793 5793 5792 5792 5791 5791 5790 5789 5788 5788 5787 5786 5785 5783 5782 5780 5778 5777 5775 5773 5771 5770 5768 5766 5765 5764 5763 5762 5761 5760 5758 5757 5755 5753 5751 5749 5748 5746 5745 5743 5741 5739 5737 5734 5732 5729 5727 5726 5724 5722 5720 5718 5716 5714 5712 5710 5708 5706 5704 5702 5700 5698 5696 5695
5790 5791 5791 5792 5792 5793 5793 5793 5793 5793 5793 5793 5793 5793 5792 5792 5791 5791 5791 5791 5790 5790 5789 5789 5788 5788 5787 5786 5785 5784 5783 5782 5781 5780 5778 5777 5775 5773 5771 5769 5767 5765 5763 5761 5759 5758 5757 5756 5754 5753 5752 5750 5749 5747 5745 5743 5741 5739 5738 5736 5734 5732 5730 5728 5725 5723 5720 5718 5716 5715 5713 5711 5709 5706 5704 5702 5700 5698 5696 5694 5692 5690 5688 5686 5684
5788 5789 5790 5790 5790 5790 5791 5791 5790 5790 5790 5790 5790 5789 5789 5789 5788 5788 5788 5787 5787 5787 5786 5785 5785 5784 5783 5782 5781 5780 5778 5777 5776 5774 5773 5772 5770 5768 5766 5764 5762 5759 5757 5755 5753 5751 5749 5748 5746 5745 5743 5742 5740 5738 5736 5734 5732 5730 5728 5727 5725 5723 5720 5718 5716 5713 5710 5707 5706 5705 5703 5701 5699 5697 5695 5693 5690 5688 5686 5684 5682 5680 5678 5676 5674
5786 5787 5787 5788 5788 5788 5788 5788 5788 5788 5787 5787 5787 5786 5786 5785 5785 5785 5784 5784 5783 5783 5782 5781 5781 5780 5779 5778 5776 5775 5773 5772 5771 5769 5767 5766 5764 5762 5760 5758 5756 5753 5751 5748 5746 5744 5742 5740 5738 5736 5735 5733 5732 5730 5728 5725 5723 5721 5719 5717 5716 5714 5711 5709 5706 5704 5701 5698 5696 5695 5693 5691 5689 5687 5686 5683 5681 5679 5676 5674 5672 5671 5669 5667 5665
5783 5784 5784 5784 5785 5785 5785 5785 5785 5785 5785 5784 5784 5783 5783 5782 5781 5781 5780 5780 5779 5778 5778 5777 5776 5775 5774 5773 5771 5770 5768 5767 5765 5763 5761 5759 5757 5755 5753 5751 5749 5746 5744 5741 5739 5737 5735 5732 5730 5728 5727 5725 5723 5721 5719 5717 5714 5712 5711 5709 5707 5705 5703 5700 5698 5695 5692 5690 5688 5686 5684 5681 5679 5678 5676 5674 5672 5669 5667 5665 5663 5661 5660 5658 5656
5781 5781 5781 5781 5781 5781 5781 5782 5782 5781 5781 5781 5780 5780 5779 5779 5778 5777 5777 5776 5775 5774 5773 5772 5770 5769 5768 5767 5766 5764 5762 5760 5758 5757 5755 5752 5750 5748 5746 5744 5741 5739 5736 5734 5732 5729 5727 5725 5723 5721 5719 5717 5715 5713 5711 5709 5707 5704 5702 5700 5699 5697 5694 5692 5689 5687 5685 5682 5680 5677 5675 5672 5670 5668 5667 5665 5663 5660 5658 5656 5654 5652 5651 5649 5647
5777 5778 5778 5778 5778 5778 5778 5778 5778 5777 5777 5777 5777 5776 5775 5775 5774 5773 5772 5771 5769 5768 5767 5766 5764 5763 5762 5761 5759 5758 5756 5754 5752 5750 5748 5746 5743 5741 5739 5737 5734 5732 5729 5727 5725 5722 5720 5717 5715 5713 5711 5709 5707 5705 5703 5701 5699 5696 5694 5692 5690 5688 5686 5684 5681 5679 5677 5674 5672 5669 5666 5664 5662 5660 5659 5657 5655 5652 5650 5648 5646 5644 5643 5641 5639
5774 5774 5775 5775 5775 5774 5774 5774 5774 5773 5773 5773 5772 5771 5770 5770 5769 5768 5766 5765 5764 5762 5761 5759 5758 5757 5755 5754 5752 5751 5749 5747 5745 5743 5741 5739 5737 5734 5732 5730 5727 5724 5722 5720 5718 5715 5712 5710 5707 5705 5703 5702 5699 5697 5695 5693 5691 5689 5687 5685 5683 5681 5679 5676 5673 5671 5669 5666 5664 5661 5659 5656 5655 5653 5651 5649 5647 5645 5643 5641 5639 5638 5636 5634 5633
5771 5772 5771 5771 5771 5771 5771 5770 5770 5770 5769 5768 5767 5766 5765 5764 5763 5762 5761 5759 5758 5756 5755 5754 5752 5750 5749 5747 5745 5743 5741 5740 5738 5736 5734 5732 5729 5727 5725 5723 5720 5718 5715 5713 5710 5708 5705 5703 5700 5698 5696 5694 5692 5690 5688 5686 5684 5682 5679 5677 5675 5673 5671 5669 5666 5663 5661 5659 5657 5654 5652 5650 5647 5646 5644 5642 5640 5638 5637 5635 5633 5631 5630 5628 5626
5768 5768 5768 5768 5767 5767 5767 5766 5766 5765 5764 5763 5762 5761 5760 5759 5757 5756 5755 5753 5752 5751 5750 5748 5747 5745 5742 5740 5738 5736 5734 5732 5730 5728 5726 5724 5722 5720 5718 5715 5713 5711 5708 5706 5704 5701 5699 5696 5694 5692 5689 5688 5686 5684 5682 5679 5677 5675 5673 5670 5668 5666 5664 5662 5659 5657 5655 5653 5650 5648 5646 5643 5641 5639 5637 5635 5633 5632 5631 5629 5627 5625 5624 5622 5620
5764 5764 5764 5763 5763 5763 5762 5762 5761 5760 5759 5758 5757 5756 5755 5754 5752 5751 5749 5748 5746 5745 5744 5743 5741 5738 5736 5734 5732 5730 5728 5725 5723 5721 5719 5717 5715 5713 5711 5708 5706 5704 5701 5699 5697 5694 5692 5690 5688 5685 5683 5681 5679 5677 5675 5673 5671 5668 5666 5663 5661 5659 5657 5655 5653 5651 5649 5647 5644 5642 5640 5638 5636 5634 5632 5630 5628 5627 5626 5624 5623 5621 5619 5617 5615